{"data":{"norad_id":57358,"intl_designator":"2023-099AG","name":"STARLINK-6299","alt_names":[],"object_type":"PAYLOAD","status":"ACTIVE","operator":null,"country":"US","launch_date":"2023-07-16","launch_site_code":"AFETR","launch_vehicle":null,"mission":null,"orbit_class":"UNKNOWN","rcs_meters":null,"size_class":null,"mass_kg":null,"dimensions":null,"purposes":["comms"],"wikipedia_slug":null,"has_3d_model":false,"image_url":null,"decayed_at":null,"tle_current":{"epoch":"2026-05-25T04:30:39.799296Z","epoch_age_seconds":58565,"freshness":"FRESH","line1":"1 57358U 23099AG  26145.18796064  .00000577  00000+0  30478-4 0  9994","line2":"2 57358  43.0027 169.2490 0001173 295.2878  64.7852 15.27577114158646","mean_motion":15.27577114,"eccentricity":0.0001173,"inclination_deg":43.0027,"raan_deg":169.249,"arg_perigee_deg":295.2878,"mean_anomaly_deg":64.7852,"bstar":3.0478e-5,"rev_number":15864,"period_min":94.266926808646,"perigee_km":482.25291963275,"apogee_km":483.86255591823,"semimajor_km":6861.1947377755,"source":"CELESTRAK","updated_at":"2026-05-25T13:38:18.292040Z"}}}